Weather in Baltimore

United States     39°17′24″N   76°36′45″W
temp.,
°C
wind,
m/s
gust,
m/s
humid.,
%
clouds,
%
prec.,
mm/h
press.,
hPa
HPBL,
m
21 june, mon
mon2123:00+25ssw4107998 0.0 1009323
02:00+23ssw379199 0.0 1007235
05:00+22ssw3797100 0.0 1007232
08:00+23ssw3591100 0.0 1007307
11:00+27sse3371100 0.0 1006514
14:00+29sse566422 0.0 10041082
17:00+29s686250 0.1 1001655
20:00+23ssw129227 4.9 100491
22 june, tue
tue2223:00+23sw2496100 14.1 1006145
02:00+22w3888100 14.6 1006334
05:00+21nnw378667 0.0 1007331
08:00+21nnw5871100 0.0 1009591
11:00+18n5787100 0.9 1011494
14:00+17n3493100 10.8 1012355
17:00+20nnw3573100 0.4 10121046
20:00+20n3672100 0.6 1014318
23 june, wed
wed2323:00+17nnw3765100 0.0 1016256
02:00+15n35681 0.0 1018175
05:00+14n23660 0.0 1020135
08:00+16n34575 0.0 1022307
11:00+20nne34420 0.0 10241331
14:00+22e23400 0.0 10231459
17:00+22ese22422 0.0 10241277
20:00+20sse235378 0.0 1025189
24 june, thu
thu2423:00+19se115690 0.0 102545
02:00+18se2267100 0.0 1026110
05:00+17se127282 0.0 1027109
08:00+19e226572 0.0 1028317
11:00+21ese35550 0.0 1028801
14:00+24ese34420 0.0 10271182
17:00+24ese56450 0.0 10251098
20:00+21ese46610 0.0 1026432
25 june, fri
fri2523:00+19ese477916 0.0 1026370
02:00+19ene3685100 0.3 1025325
05:00+19ene4687100 0.0 1024311
08:00+19ne3490100 0.2 1024270
11:00+20ne3489100 0.3 1024324
14:00+24ese347645 0.5 1022686
17:00+26sse5871100 0.4 1020893
20:00+24s61178100 0.6 1020614